Regional Weather Roundup
Issued by NWS

Home | Current Version | Previous Version | Graphics & Text | Print | Product List | Glossary Off
Versions: 1 2 3 4 5 6 7 8 9 10 11 12 13 14 15 16 17 18 19 20 21 22 23 24 25 26 27 28 29 30 31 32 33 34 35 36 37 38 39 40 41 42 43 44 45 46 47 48 49 50

000
ASUS45 KABQ 070210
RWRNM
NEW MEXICO REGIONAL WEATHER ROUNDUP
NATIONAL WEATHER SERVICE ALBUQUERQUE NM
800 PM MDT MON JUL 06 2015

NOTE: "FAIR" MEANS FEW OR NO CLOUDS BELOW 12,000 FEET AGL WITH NO
       SIGNIFICANT WEATHER OR OBSTRUCTIONS TO VISION.

      THIS PRODUCT IS RELEASED AS TWO VERSIONS.  ONE VERSION NEAR
      THE TOP OF THE HOUR CONTAINING PRELIMINARY DATA FROM ALBUQUERQUE
      AND OTHER STATIONS.  A FINAL VERSION WITH ADDITIONAL DATA IS
      ISSUED ABOUT 10 MINUTES AFTER THE HOUR.

NMZ501-503-504-510>518-070300-
NORTHWEST PLATEAU/NORTHCENTRAL MOUNTAINS

CITY           SKY/WX    TMP DP  RH WIND       PRES   REMARKS
FARMINGTON     PTCLDY    77  50  38 N9        30.10R
LOS ALAMOS     CLOUDY    66  55  66 SW6       30.25R
SANTA FE       CLOUDY    67  55  65 SE12      30.18R
TAOS           MOCLDY    66  46  48 SE15      30.25R
ANGEL FIRE     FAIR      57  52  81 N9        30.35S

$$
NMZ402-403-502-505>509-070300-
WESTCENTRAL MOUNTAINS/SOUTHWEST MOUNTAINS

CITY           SKY/WX    TMP DP  RH WIND       PRES   REMARKS
GALLUP         MOCLDY    71  57  61 CALM      30.19R
GRANTS         CLOUDY    68  62  82 NW6       30.21R
SILVER CITY      N/A     79  52  38 NW6       30.11S

$$
NMZ407-409-411-412-070300-
SOUTHERN DESERTS

CITY           SKY/WX    TMP DP  RH WIND       PRES   REMARKS
LORDSBURG      FAIR      88  54  31 W10G20    30.01S
DEMING         PTCLDY    85  55  35 W8        29.99R
LAS CRUCES     CLOUDY    88  51  27 NW13G23   29.99R
HOLLOMAN AFB     N/A     91  51  25 SW6       29.92R
ALAMOGORDO     PTCLDY    90  48  24 W6        29.95R
T OR C         CLOUDY    88  46  23 W10       30.00F

$$
NMZ519>523-070300-
CENTRAL VALLEYS/CENTRAL HIGHLANDS

CITY           SKY/WX    TMP DP  RH WIND       PRES   REMARKS
ALBUQUERQUE    MOCLDY    74  56  53 E15       30.09R
DOUBLE EAGLE   MOCLDY    72  59  64 N9        30.14R
MORIARTY ARPT    N/A     65  58  77 SE9       30.20S
CLINES CORNERS CLOUDY    60  58  92 E12       30.24S
BELEN          MOCLDY    74  57  55 CALM      30.07R
SOCORRO        CLOUDY    83  56  39 E17       30.02R

$$
NMZ524>526-539-540-070300-
SOUTHCENTRAL MOUNTAINS

CITY           SKY/WX    TMP DP  RH WIND       PRES   REMARKS
RUIDOSO        CLOUDY    64  57  77 N15       30.23R

$$
NMZ527>531-070300-
NORTHEAST HIGHLANDS/NORTHEAST PLAINS

CITY           SKY/WX    TMP DP  RH WIND       PRES   REMARKS
LAS VEGAS      CLOUDY    58  56  93 NE9       30.27R
RATON          CLOUDY    63  56  78 NE8       30.24S
CLAYTON        CLOUDY    65  58  78 N17       30.17R

$$
NMZ532>537-070300-
EASTCENTRAL PLAINS

CITY           SKY/WX    TMP DP  RH WIND       PRES   REMARKS
TUCUMCARI      RAIN      67  64  90 NE14      30.09F
CANNON AFB     TSTM      67  65  94 N22G36    30.10R FOG
CLOVIS AIRPORT CLOUDY    68  63  83 N17G25      N/A

$$
NMZ028-029-538-070300-
SOUTHEAST PLAINS

CITY           SKY/WX    TMP DP  RH WIND       PRES   REMARKS
ROSWELL        PTCLDY    75  65  70 N26G38    29.97R
ARTESIA        MOCLDY    79  64  61 N30G40    29.95R
CARLSBAD       TSTM      76  68  76 NE12G23   29.89R
HOBBS          MOCLDY    84  61  45 S18       29.94F


$$



USA.gov is the U.S. government's official web portal to all federal, state and local government web resources and services.